OpenBCM V2.0.2 (Linux)

Packet Radio Mailbox

IZ3LSV

[San Dona' di P. JN]

 Login: GUEST





  
I6KZR  > KEPLER   09.10.12 11:26l 234 Lines 10722 Bytes #999 (0) @ EU
BID : 1731_I6KZR
Read: GUEST
Subj: 2L Keplerian Elements #358
Path: IZ3LSV<IK2XDE<IR2UBX<IK8VKW<F1OYP<VK4TUB<VK4WIT<EA5RQ<EA5VDR<EA2BBS<
      EA4Q<EA4F<EB4CTD<EA3RKU<EA5AKC<7M3TJZ<RZ6HWL<HA3PG<SV1AAW<IK6PYS<
      I6ZLO<IK6IKJ<I6DH
Sent: 1001223/1654Z @:I6DH.IMAR.ITA.EU #:6174 [Ascoli P.] FBB5.15c $:1731_I6KZR
From: I6KZR@I6DH.IMAR.ITA.EU
To  : KEPLER@EU

R.001223/1731z @:I6KZR.I6DH.#IMAR.ITA.EU $:1731_I6KZR Sally 3.1.064 

Messaggio inviato da: I6KZR@I6DH.IMAR.ITA.EU

AO-10
1 14129  83058B   00356.97544393 -.00000012  00000 1  10000-3 0  7276
2 14129  26.6843 295.3795 6002310 111.2323 320.6086  2.05866426103821
AO-40
1 26609  00072B   00354.78150683 -.00000292  00000 1  00000 1 0   166
2 26609   6.2479 237.0656 8128421 195.4843  97.8405  1.26866570   613
FO-20
1 20480  90013C   00355.86959518  .00000005  00000 1  87952-4 0  2770
2 20480  99.0749  91.5094 0541213 352.8465   6.5126 12.83284554509221
FO-29
1 24278  96046B   00355.73011057  .00000014  00000 1  47831-4 0  4217
2 24278  98.5692 238.9168 0352030 104.1176 259.9342 13.52751936214513
MIR
1 16609  86017A   00358.19887631  .00107281  00000 1  43959-3 0  3483
2 16609  51.6494   7.9705 0015892 143.6642 308.8810 15.85031283848916
RS-12/13
1 21089  91007A   00355.69034230  .00000089  00000 1  78558-4 0  3018
2 21089  82.9233  47.4247 0029011 329.1853  30.7599 13.74240041495299
RS-15
1 23439  94085A   00355.75377030 -.00000039  00000 1  10617-3 0  5168
2 23439  64.8173 238.7573 0167381 257.3112 100.9053 11.27539112246545
UO-14
1 20437  90005B   00357.72738329  .00000305  00000 1  13276-3 0  5824
2 20437  98.3867  58.2401 0011636  21.3189 338.8477 14.30602340569823
UO-15
1 20438  90005C   00357.21113384  .00000214  00000 1  99468-4 0  3664
2 20438  98.3580  50.6287 0011079  31.4512 328.7331 14.29705185569496
AO-16
1 20439  90005D   00358.18655589  .00000438  00000 1  18357-3 0  3801
2 20439  98.4276  65.9884 0011993  22.2199 337.9518 14.30704739569918
DO-17
1 20440  90005E   00357.74902817  .00000454  00000 1  18888-3 0  3743
2 20440  98.4394  67.8473 0011869  23.5334 336.6388 14.30906394569904
WO-18
1 20441  90005F   00357.23698550  .00000384  00000 1  16258-3 0  3880
2 20441  98.4378  66.9716 0012206  26.6450 333.5359 14.30798630569823
LO-19
1 20442  90005G   00358.20886547  .00000432  00000 1  18034-3 0  3804
2 20442  98.4468  69.7026 0012741  21.4551 338.7162 14.30942670570004
AO-21
1 21087  91006A   00358.04188896  .00000094  00000 1  82956-4 0  2444
2 21087  82.9390 180.5340 0034309 288.0116  71.7301 13.74747975496672
UO-22
1 21575  91050B   00357.52803980  .00000477  00000 1  17131-3 0   923
2 21575  98.1362  15.2030 0007794   0.3843 359.7350 14.37961607494987
KO-23
1 22077  92052B   00355.91042934 -.00000037  00000 1  10000-3 0    32
2 22077  66.0865 339.3634 0015832 275.6359  84.2854 12.86356675392732
KO-25
1 22828  93061F   00357.67562287  .00000369  00000 1  16283-3 0  8416
2 22828  98.3794  48.3694 0011043  49.7377 310.4768 14.28884478345582
IO-26
1 22826  93061D   00357.20222650  .00000334  00000 1  14992-3 0  8596
2 22826  98.3838  47.7201 0009853  67.5961 292.6254 14.28467437377341
AO-27
1 22825  93061C   00356.29511818  .00000217  00000 1  10348-3 0  8669
2 22825  98.3809  46.1342 0009513  71.1015 289.1197 14.28305935377184
MO-30
1 24305  96052B   00355.88422613  .00000204  00000 1  20364-3 0  4813
2 24305  82.9344 126.6215 0028923 240.4918 119.3351 13.73263809215093
TO-31
1 25396  98043C   00357.86020882 -.00000044  00000 1  00000 1 0  4307
2 25396  98.7053  71.2826 0001782 239.3491 120.7512 14.22859291127487
GO-32
1 25397  98043D   00355.93318352  .00000145  00000 1  84445-4 0  3822
2 25397  98.7023  69.0470 0000619 227.7192 132.3934 14.22516809127215
SO-33
1 25509  98061B   00358.14531838  .00001271  00000 1  24938-3 0  2010
2 25509  31.4481 272.5012 0363793 278.2133  77.7433 14.25306503112802
PO-34
1 25520  98064B   00356.19862206  .00003687  00000 1  22723-3 0  2580
2 25520  28.4619  54.2589 0007024 116.6456 243.4949 15.07203828118114
SO-35
1 25636  99008C   00358.04089889  .00001064  00000 1  29409-3 0  2878
2 25636  96.4515 156.3453 0150833 304.7634  53.9435 14.41621083 96293
WO-39
1 26061  00004A   00356.19222370  .00001112  00000 1  40642-3 0  1388
2 26061 100.1921 252.1593 0036569 345.8934  14.1222 14.35183626 47195
ISS
1 25544  98067A   00358.15531250  .00043755  00000 1  42340-3 0  4207
2 25544  51.5737 259.8734 0007404 260.9348 281.1129 15.65927393119538
POSAT
1 22829  93061G   00357.20385164  .00000389  00000 1  17036-3 0  8614
2 22829  98.3783  48.2009 0010988  51.8786 308.3386 14.28925656377430
JAWSAT
1 26065  00004E   00355.88636773  .00000479  00000 1  18945-3 0  1086
2 26065 100.1939 251.5794 0037995 348.9123  11.1216 14.34432024 47123
OPAL
1 26062  00004B   00356.70018964  .00237336  00000 1  30241-1 0  4056
2 26062 100.2182 263.5965 0022433 347.6221  12.4990 14.81378842 47795
OCS
1 26063  00004C   00355.72869646  .00000406  00000 1  16358-3 0  1091
2 26063 100.1944 251.3784 0037337 348.1181  11.9124 14.34494007 47103
UNK3
1 26093  00004L   00355.69053115  .00003727  00000 1  12899-2 0  1562
2 26093 100.1853 251.6371 0037174 348.5737  11.4590 14.36078993 44956
UNK4
1 26094  00004M   00355.15341185  .00001277  00000 1  46307-3 0  1022
2 26094 100.1892 250.7433 0037260 350.8318   9.2180 14.35223170 44347
SAUDISAT 1A
1 26548  00057D   00356.20758273  .00002531  00000 1  38607-3 0   455
2 26548  64.5588 289.4226 0010825  13.7759 346.3645 14.75965315 12655
UNISAT
1 26547  00057C   00355.35171771  .00003615  00000 1  57714-3 0   488
2 26547  64.5614 293.1774 0018221  66.6324 293.6705 14.73224692 12528
SAUDISAT 1B
1 26549  00057E   00355.91949131  .00001988  00000 1  32237-3 0   467
2 26549  64.5515 291.1301 0014693  58.8262 301.4281 14.73856425 12608
TIUNGSAT-1
1 26545  00057A   00355.39271839  .00002838  00000 1  44224-3 0   495
2 26545  64.5607 292.3793 0012197  38.0148 322.1842 14.74766703 12528
MEGSAT-1
1 26546  00057B   00300.90113007  .00002017  00000 1  31077-3 0   441
2 26546  64.5565  98.4503 0004641  22.5030 337.6284 14.76095605  4507
DNEPR-1 R/B
1 26550  00057F   00300.95678734  .00000721  00000 1  29452-3 0   482
2 26550  64.5580 111.6189 0521266 122.5374 242.7151 13.78368992  4216
DNEPR-1 DEB
1 26551  00057G   00300.94213223  .00009253  00000 1  13064-2 0   626
2 26551  64.5561  98.1324 0007997 337.0117  23.0632 14.77613920  4504
NOAA 9
1 15427  84123A   00357.99435066  .00000311  00000 1  18480-3 0  7126
2 15427  98.7652  68.0333 0014554 309.9755  50.0140 14.14419733826786
NOAA 10
1 16969  86073A   00357.99839554  .00000557  00000 1  25133-3 0  6892
2 16969  98.6593 341.1456 0011757 221.2316 138.7977 14.26066766741610
NOAA 11
1 19531  88089A   00357.97508115  .00000305  00000 1  18485-3 0  5312
2 19531  98.9843  63.0939 0011154 276.0020  83.9881 14.13802994631481
NOAA 12
1 21263  91032A   00358.00159425  .00000575  00000 1  26975-3 0  9776
2 21263  98.5607 348.7262 0012717 151.3790 208.8090 14.23796685499096
NOAA 13
1 22739  93050A   00336.04119143  .00000600  00000 1  35676-3 0  3502
2 22739  99.2092 342.0743 0009825 347.7826  12.3104 14.11474530376636
NOAA 14
1 23455  94089A   00357.96025894  .00000351  00000 1  21525-3 0  5664
2 23455  99.1628 340.2817 0008903 284.8971  75.1213 14.12535763308254
NOAA 15
1 25338  98030A   00357.99133833  .00000319  00000 1  15948-3 0   203
2 25338  98.6190  23.0732 0011652  87.1739 273.0773 14.23434742135724
NOAA 16
1 26536  00055A   00354.47458394  .00000279  00000 1  17924-3 0  1152
2 26536  98.8052 297.4165 0011360  26.6749 333.5519 14.10998417 12551
METEOR 2-16
1 18312  87068A   00334.93219369  .00000178  00000 1  14596-3 0  8720
2 18312  82.5550 141.6566 0012451 340.6184  19.4499 13.84264960671216
METEOR 2-17
1 18820  88005A   00335.67547758  .00000319  00000 1  26956-3 0  3819
2 18820  82.5441 192.3102 0017594  37.6240 322.6155 13.84923695648777
METEOR 2-18
1 19851  89018A   00334.76555093  .00000244  00000 1  20212-3 0  8696
2 19851  82.5208  63.4240 0014128  85.1652 275.1123 13.85109600593947
METEOR 2-19
1 20670  90057A   00335.50783610  .00000201  00000 1  16698-3 0  4123
2 20670  82.5447 135.3148 0017181   9.9112 350.2378 13.84261689526865
METEOR 2-20
1 20826  90086A   00335.57382544  .00000195  00000 1  16303-3 0  3861
2 20826  82.5268  69.2111 0012490 279.1415  80.8332 13.83806152513893
METEOR 2-21
1 22782  93055A   00356.39902465  .00000168  00000 1  13920-3 0  8717
2 22782  82.5480 120.7384 0023052  39.9487 320.3361 13.83303338368973
METEOR 3-2
1 19336  88064A   00334.84347162  .00000051  00000 1  10000-3 0  8868
2 19336  82.5398  95.3390 0017432 127.2979 232.9742 13.17027082593593
METEOR 3-3
1 20305  89086A   00335.34309882  .00000044  00000 1  10000-3 0  6820
2 20305  82.5453  79.5627 0005908 300.7923  59.2417 13.04463442530345
METEOR 3-4
1 21232  91030A   00334.92221318  .00000051  00000 1  10000-3 0  2860
2 21232  82.5380 302.6726 0014329  65.5728 294.6866 13.16515678461584
METEOR 3-6
1 22969  94003A   00334.95469042  .00000051  00000 1  10000-3 0  6967
2 22969  82.5640 192.6755 0015143 129.9934 230.2522 13.16806964329140
METEOSAT 4
1 19876  89020B   00326.20341360 -.00000095  00000 1  10000-3 0  5131
2 19876   5.2307  66.5398 0017831 302.6541  56.9944  0.97109501 22337
METEOSAT 5
1 21140  91015B   00356.90074064  .00000022  00000 1  10000-3 0  9222
2 21140   3.9126  74.4815 0001596 246.2227 157.1203  1.00275795 38147
METEOSAT 6
1 22912  93073B   00355.91384839 -.00000075  00000 1  00000 1 0  5489
2 22912   0.8574  77.8736 0003406 224.4688 107.3731  1.00270962 24383
METEOSAT 7
1 24932  97049B   00354.50021934 -.00000006  00000 1  00000 1 0  7394
2 24932   0.3198 308.0377 0001097 343.9137 336.4983  1.00273601 12085
UO-11
1 14781  84021B   00357.53225147  .00002471  00000 1  39057-3 0  3737
2 14781  98.0089 317.6212 0009748 214.8395 145.2179 14.73179497900021
UOSAT-12
1 25693  99021A   00358.13198476 -.00000001  00000 1  21139-4 0  4033
2 25693  64.5609 254.3038 0050758 269.7221  89.8043 14.73545190 90141
RS-10/11
1 18129  87054A   00355.55560787  .00000077  00000 1  68250-4 0  9125
2 18129  82.9253  10.7535 0010175 263.0521  96.9477 13.72537204676135
FENGYUN 1C
1 25730  99025A   00356.17178905 -.00000013  00000 1  16603-4 0  1542
2 25730  98.7179  32.0527 0015123  86.3925 273.8974 14.10346030 83322
HUBBLE
1 20580  90037B   00355.75257627  .00004045  00000 1  37074-3 0  4428
2 20580  28.4649 110.0727 0011982 236.5223 123.4224 14.92422378384298
RESURS
1 25394  98043A   00358.00693413  .00000474  00000 1  23000-3 0  9284
2 25394  98.7077  71.6687 0001081 198.0448 162.0693 14.22982445127493
UARS
1 21701  91063B   00356.20471018  .00001561  00000 1  14729-3 0  1932
2 21701  56.9823 338.2738 0004704  91.5262 268.6314 14.99167138507180

Frase del giorno:
* Disco Pieno! - cancello Windows? (S)i (D)iavolo si!

Buon Natale e Felice Anno Nuovo
73 Ciao a tutti Renzo.


li, sabato 23 dicembre 2000  17.29 UTC

  /___/____/
 /    /   /
     ||
     ||I6KZR  Fermo, Italy
     ||BBS    I6KZR@I6DH.IMAR.ITA.EU
     ||e_mail i6kzr@arrl.net


Message sent with Sally V3.1. Windows packet software.


Read previous mail | Read next mail


 02.05.2026 20:55:40lGo back Go up